STARLINK-31078 (58638 NORAD) Tracking and Keplerian Element Data

This shows tracking and keplerian element data for the satellite.

Feedback or suggestion? Click here.




ElementValue
Catalog58638
NameSTARLINK-31078
Epoch Orbit457
Epoch Day13.25002315
Epoch Year2024
RAAN183.836
Inclination43.0011
Eccentricity0.0001455
Argument of Perigee257.2422
Mean Anonmoly328.76
Mean Motion15.51032494
Decay Rate-0.01921023
L11 58638U 23203W 24013.25002315 -.01921023 00000+0 -35894-1 0 9997
L22 58638 43.0011 183.8360 0001455 257.2422 328.7600 15.51032494 4575



Live tracking and technical data element details for STARLINK-31078 (NORAD 58638). STARLINK-31078 can be tracked NOW for your location showing map with azimuth and elevation plus other details from your city location.







IsCatalogInMostPopularTable: catalog: 58638, numindb: 22
Update: records affected: 1



GetName: 58638 STARLINK-31078

Hit Count: updated at: Wed, 17 Apr 2024 03:01:05 GMT